Zurück zum Katalog

ARIANE 44L DEB

AktivHEO
NORAD 24751·DEBRIS·🇫🇷 France

Gestartet Jan 15, 1991 von Guiana Space Centre

Loading…

Nächste Überflüge (nächste 24 Stunden)

TLE

AktuellSource: Space-Track

Epoche: Sep 12, 2026, 23:36 UTC

1 24751U 91003K   26255.98353742  .00000011  00000-0  22429-3 0  9997
2 24751   7.8947 119.8251 6164265 281.7465  19.0335  3.61363228358108

Verfolge ARIANE 44L DEB in Echtzeit mit AllMySat

Download on the App Store